Regional Weather Roundup
Issued by NWS

Home | Current Version | Previous Version | Graphics & Text | Print | Product List | Glossary On
Versions: 1 2 3 4 5 6 7 8 9 10 11 12 13 14 15 16 17 18 19 20 21 22 23 24 25 26 27 28 29 30 31 32 33 34 35 36 37 38 39 40 41 42 43 44 45 46 47 48 49 50
901
ASUS45 KSLC 260410
RWRUT

UTAH REGIONAL WEATHER ROUNDUP
NATIONAL WEATHER SERVICE SALT LAKE CITY UT
1000 PM MDT TUE APR 25 2017

UTZ001>011-023>025-260500-

NORTHERN UTAH

CITY           SKY/WX    TMP DP  RH WIND       PRES   REMARKS
BRIGHAM CITY   CLOUDY    49  33  54 CALM      29.92R
HILL AFB       PTCLDY    41  35  76 S7        29.92R
LOGAN          PTCLDY    44  36  73 SE6       29.91R
OGDEN          PTCLDY    44  36  73 S8        29.91R
SALT LAKE CITY MOCLDY    46  39  76 SE7       29.92R
TOOELE VALLEY  PTCLDY    39  36  87 S8        29.94R WCI  34
WENDOVER       PTCLDY    51  24  34 NW8       29.93R
HEBER CITY     CLEAR     34  28  80 CALM      29.93R
WEST JORDAN    PTCLDY    45  42  89 SW7       29.94S

$$

UTZ011>015-024>027-260500-

CENTRAL/NORTHEAST UTAH

CITY           SKY/WX    TMP DP  RH WIND       PRES   REMARKS
PROVO AIRPORT  PTCLDY    44  33  65 NE3       29.95R
MOAB/CANYONLAN PTCLDY    45  26  47 SW7       29.83R
DELTA          CLEAR     45  27  49 NE3       29.95R
PRICE          CLEAR     42  26  53 NW22G30   29.88R
RICHFIELD      CLEAR     41  25  52 CALM      29.99R
ROOSEVELT      CLOUDY    43  28  56 SW6       29.88R
VERNAL         CLOUDY    45  31  58 E3        29.86R

$$

UTZ013>016-019>022-027-260500-

SOUTHERN UTAH

CITY           SKY/WX    TMP DP  RH WIND       PRES   REMARKS
BRYCE CANYON   CLEAR     30  17  58 NW7       29.98R WCI  23
CEDAR CITY     CLEAR     37  23  56 NE6       29.95R WCI  32
MILFORD        CLEAR     42  25  50 NW6       29.96R
HANKSVILLE     CLEAR     50  23  34 W8        29.89R
KANAB          CLEAR     45  21  39 N1        29.98R
BLANDING       PTCLDY    43  24  46 N9        29.94R

$$

REGIONAL REPORTS     COLORADO/ARIZONA

CITY           SKY/WX    TMP DP  RH WIND       PRES   REMARKS
CRAIG, CO      CLOUDY    37  30  75 W5        29.86R WCI  33
GRAND JUNCTION CLOUDY    44  37  76 W6        29.86R
RIFLE, CO      CLOUDY    40  34  79 W9        29.86R WCI  34
MONTROSE, CO   LGT RAIN  41  33  73 SW9       29.89R
CORTEZ, CO     CLOUDY    37  29  72 NE3       29.86R
COLORADO CITY    N/A     46  21  36 CALM      29.97R
PAGE, AZ       CLEAR     56  20  24 W9        29.86R
GRAND CANYON   CLEAR     44  17  33 VRB5      29.96R
KINGMAN, AZ    CLEAR     52  18  26 E5        29.88R
FLAGSTAFF, AZ  CLEAR     44  15  31 CALM      29.96R

$$

REGIONAL REPORTS    NEVADA/IDAHO/WYOMING

CITY           SKY/WX    TMP DP  RH WIND       PRES   REMARKS
LAS VEGAS, NV  PTCLDY    71  12  10 NE14      29.83R
ELY, NY        MOCLDY    38  21  50 NW5       30.00R WCI  34
ELKO, NV       CLOUDY    45  29  53 W3        29.96S
POCATELLO, ID  PTCLDY    45  30  55 SW14      29.90R
BURLEY, ID     MOCLDY    45  31  58 S8        29.90R
FORT BRIDGER,    N/A     35  32  89 W13       29.94R WCI  26
EVANSTON, WY   CLOUDY    35  29  78 W13       29.94R WCI  26
ROCK SPRINGS,  CLOUDY    34  29  82 W3        29.90R
KEMMERER, WY     N/A     34  30  86 W13       29.91S WCI  25

$$




USA.gov is the U.S. government's official web portal to all federal, state and local government web resources and services.